TimeCST,TemperatureF,Dew PointF,Humidity,Sea Level PressureIn,VisibilityMPH,Wind Direction,Wind SpeedMPH,Gust SpeedMPH,PrecipitationIn,Events,Conditions,WindDirDegrees,DateUTC
12:01 AM,23.0,19.4,86,30.01,1.0,East,15.0,25.3,0.00,Snow,Light Snow,100,2013-02-22 06:01:00
12:13 AM,23.0,19.4,86,29.99,1.5,East,16.1,21.9,0.01,Snow,Light Snow,90,2013-02-22 06:13:00
12:42 AM,23.0,19.4,86,29.98,1.5,East,16.1,25.3,0.02,Snow,Light Snow,90,2013-02-22 06:42:00
12:53 AM,23.0,19.9,88,30.01,1.2,East,17.3,-,0.03,Snow,Light Snow,90,2013-02-22 06:53:00
1:29 AM,23.0,19.4,86,29.94,2.0,East,16.1,-,0.04,Snow,Light Snow,80,2013-02-22 07:29:00
1:53 AM,23.0,19.9,88,29.97,2.5,East,16.1,-,0.05,Snow,Light Snow,90,2013-02-22 07:53:00
2:16 AM,23.0,19.4,86,29.91,2.0,East,17.3,25.3,0.00,Snow,Light Snow,90,2013-02-22 08:16:00
2:24 AM,23.0,19.4,86,29.91,1.8,East,17.3,-,0.00,Snow,Light Snow,90,2013-02-22 08:24:00
2:31 AM,23.0,19.4,86,29.91,2.0,East,17.3,-,0.00,Snow,Light Snow,100,2013-02-22 08:31:00
2:53 AM,23.0,19.9,88,29.93,1.8,East,15.0,-,0.00,Snow,Light Snow,100,2013-02-22 08:53:00
3:18 AM,23.0,21.2,93,29.89,2.0,East,12.7,20.7,0.00,Snow,Light Snow,100,2013-02-22 09:18:00
3:20 AM,23.0,21.2,93,29.89,1.8,East,17.3,20.7,0.00,Snow,Light Snow,100,2013-02-22 09:20:00
3:26 AM,23.0,21.2,93,29.89,0.8,East,13.8,20.7,0.00,Snow,Light Snow,100,2013-02-22 09:26:00
3:53 AM,23.0,21.0,92,29.92,1.2,East,13.8,-,0.00,Snow,Light Snow,100,2013-02-22 09:53:00
4:02 AM,23.0,21.2,93,29.89,1.5,East,11.5,-,0.00,Snow,Light Snow,100,2013-02-22 10:02:00
4:11 AM,24.8,21.2,86,29.88,2.5,ESE,10.4,-,0.00,Snow,Light Snow,110,2013-02-22 10:11:00
4:25 AM,24.8,21.2,86,29.87,3.0,East,11.5,-,0.00,Snow,Light Snow,100,2013-02-22 10:25:00
4:32 AM,24.8,21.2,86,29.87,2.0,East,12.7,-,0.00,Snow,Light Snow,100,2013-02-22 10:32:00
4:39 AM,24.8,21.2,86,29.87,1.5,East,11.5,-,0.00,Snow,Light Snow,100,2013-02-22 10:39:00
4:53 AM,24.1,21.0,88,29.91,1.5,ESE,11.5,-,0.00,Snow,Light Snow,110,2013-02-22 10:53:00
5:05 AM,24.8,21.2,86,29.88,3.0,ESE,11.5,-,0.00,Snow,Light Snow,110,2013-02-22 11:05:00
5:50 AM,24.8,21.2,86,29.87,7.0,East,10.4,-,0.00,,Overcast,100,2013-02-22 11:50:00
5:53 AM,24.1,21.9,91,29.90,8.0,East,10.4,-,0.00,,Overcast,100,2013-02-22 11:53:00
6:48 AM,24.8,21.2,86,29.86,6.0,ESE,10.4,-,N/A,,Overcast,110,2013-02-22 12:48:00
6:53 AM,25.0,21.9,88,29.89,5.0,ESE,13.8,-,N/A,,Overcast,110,2013-02-22 12:53:00
7:53 AM,25.0,23.0,92,29.88,4.0,ESE,11.5,-,N/A,,Overcast,110,2013-02-22 13:53:00
8:42 AM,26.6,24.8,93,29.84,2.5,ESE,9.2,-,N/A,,Overcast,110,2013-02-22 14:42:00
8:53 AM,27.0,25.0,92,29.87,2.0,ESE,8.1,-,N/A,,Overcast,110,2013-02-22 14:53:00
9:36 AM,28.4,26.6,93,29.84,1.8,ESE,8.1,-,N/A,,Overcast,120,2013-02-22 15:36:00
9:53 AM,28.0,27.0,96,29.87,1.5,SE,5.8,-,N/A,,Overcast,130,2013-02-22 15:53:00
10:53 AM,30.0,28.9,96,29.88,1.0,SSE,5.8,-,N/A,,Overcast,150,2013-02-22 16:53:00
11:02 AM,30.2,30.2,100,29.85,0.8,SSE,6.9,-,N/A,,Overcast,160,2013-02-22 17:02:00
11:53 AM,32.0,30.9,96,29.88,0.5,South,5.8,-,N/A,Fog,Fog,190,2013-02-22 17:53:00
12:53 PM,33.1,32.0,96,29.87,1.0,SW,11.5,19.6,N/A,,Overcast,220,2013-02-22 18:53:00
1:08 PM,33.8,32.0,93,29.84,2.0,SW,13.8,-,N/A,,Overcast,220,2013-02-22 19:08:00
1:39 PM,33.8,32.0,93,29.83,3.0,SSW,12.7,-,N/A,,Overcast,210,2013-02-22 19:39:00
1:49 PM,33.8,32.0,93,29.84,2.0,SW,12.7,-,N/A,,Overcast,220,2013-02-22 19:49:00
1:53 PM,33.1,32.0,96,29.87,2.0,SSW,12.7,-,N/A,,Overcast,210,2013-02-22 19:53:00
2:04 PM,33.8,32.0,93,29.83,4.0,SW,10.4,-,N/A,,Overcast,220,2013-02-22 20:04:00
2:53 PM,34.0,32.0,92,29.87,6.0,SW,19.6,25.3,N/A,,Overcast,230,2013-02-22 20:53:00
3:00 PM,33.8,30.2,87,29.85,5.0,SW,16.1,25.3,N/A,,Overcast,230,2013-02-22 21:00:00
3:39 PM,33.8,30.2,87,29.85,8.0,SW,18.4,-,N/A,,Overcast,230,2013-02-22 21:39:00
3:53 PM,34.0,30.0,85,29.88,8.0,SW,15.0,-,N/A,,Overcast,230,2013-02-22 21:53:00
4:21 PM,33.8,30.2,87,29.86,10.0,SW,13.8,-,N/A,,Overcast,230,2013-02-22 22:21:00
4:51 PM,33.8,26.6,75,29.87,10.0,WSW,12.7,23.0,N/A,,Overcast,240,2013-02-22 22:51:00
4:53 PM,34.0,27.0,75,29.90,10.0,WSW,17.3,23.0,N/A,,Overcast,240,2013-02-22 22:53:00
5:18 PM,33.8,26.6,75,29.88,10.0,WSW,17.3,-,N/A,,Overcast,240,2013-02-22 23:18:00
5:53 PM,32.0,27.0,82,29.92,10.0,WSW,16.1,-,N/A,,Overcast,240,2013-02-22 23:53:00
6:53 PM,30.9,23.0,72,29.94,10.0,WSW,17.3,24.2,N/A,,Overcast,240,2013-02-23 00:53:00
7:53 PM,30.0,23.0,75,29.96,10.0,WSW,11.5,-,N/A,,Overcast,240,2013-02-23 01:53:00
8:21 PM,30.2,21.2,69,29.92,10.0,WSW,15.0,21.9,N/A,,Overcast,240,2013-02-23 02:21:00
8:53 PM,30.0,21.9,72,29.96,10.0,WSW,12.7,-,N/A,,Overcast,240,2013-02-23 02:53:00
9:53 PM,28.9,21.9,75,29.96,10.0,WSW,15.0,-,N/A,,Overcast,240,2013-02-23 03:53:00
10:14 PM,28.4,21.2,74,29.93,10.0,SW,11.5,-,N/A,,Overcast,230,2013-02-23 04:14:00
10:53 PM,28.0,21.9,78,29.96,10.0,SW,12.7,20.7,N/A,,Overcast,230,2013-02-23 04:53:00
11:16 PM,28.4,21.2,74,29.93,10.0,SW,13.8,20.7,N/A,,Overcast,230,2013-02-23 05:16:00
11:41 PM,28.4,21.2,74,29.93,10.0,WSW,13.8,-,N/A,,Overcast,240,2013-02-23 05:41:00
11:53 PM,28.0,21.9,78,29.95,10.0,SW,11.5,-,N/A,,Overcast,230,2013-02-23 05:53:00